User: anonymous   Login
Location: Unspecified
(0.0000°N, 0.0000°E)
Time: 09:41:42
(UTC+00:00)
Language:

deb r/b Ablestar - Orbit

View from above orbital plane
View from above orbital plane
View from above satellite
View from above satellite

Ground track
Ground track

The orbit data is extracted from the following two-line orbital elements,

1 00335U 61015DM  15146.10965471  .00000807  00000-0  44393-3 0  9995
2 00335 066.8430 354.7213 0049386 275.4577 084.0882 14.16079058754830
Epoch (UTC): 26 May 2015 02:37:54
Eccentricity: 0.0049386
inclination: 66.8430°
perigee height: 803 km
apogee height: 874 km
right ascension of ascending node: 354.7213°
argument of perigee: 275.4577°
revolutions per day: 14.16079058
mean anomaly at epoch: 84.0882°
orbit number at epoch: 75483

The dashed part of the orbit path shows where the satellite is in the earth's shadow,  

DLR